Wind_Speed
23 23 23 23 24 25 25 26 28 28 29 30 31 31 32 32 33 34 34 35 36 36 36 38 38 38 38 38 38 38 38 37 38 39 40 40 40 41
23 23 23 23 24 24 25 27 28 28 28 29 29 30 32 33 33 34 35 36 36 37 37 37 38 38 38 37 37 37 38 38 38 39 40 40 40 41
23 23 24 24 24 24 25 26 27 28 28 28 29 30 30 30 30 32 33 34 35 36 37 37 38 38 38 38 37 38 39 40 40 40 41 41 41 42
23 24 24 24 23 23 24 26 27 28 28 27 27 28 29 28 28 29 31 32 32 34 35 36 36 37 37 37 38 39 39 40 41 41 41 41 42 43
23 24 24 23 23 23 24 25 26 27 27 27 26 26 26 27 27 28 29 30 31 32 34 35 35 36 37 37 38 39 39 40 41 42 42 42 43 43
21 22 23 23 23 24 24 24 25 25 25 24 24 25 26 27 28 28 28 29 30 31 31 32 34 36 37 37 38 39 39 40 41 41 42 43 43 44
19 20 21 21 22 23 22 22 23 23 23 24 24 25 25 26 28 28 28 28 29 30 30 31 33 35 36 36 37 38 39 39 39 40 41 42 42 43
18 18 19 19 20 21 21 21 22 22 22 22 23 24 24 24 25 26 27 28 29 29 30 31 32 33 34 35 36 36 38 39 40 41 41 42 42 42
17 18 19 19 19 19 19 20 20 20 20 21 21 21 22 21 21 23 25 26 27 27 28 29 31 32 34 35 36 37 37 37 38 39 40 41 42 43
18 18 19 19 18 18 18 18 18 18 18 18 18 19 19 19 20 20 22 22 23 25 26 27 29 30 32 34 35 35 36 36 36 37 38 39 41 42
17 17 17 17 17 17 17 17 17 16 16 17 17 17 17 18 19 19 20 21 21 23 25 26 28 29 30 32 32 33 34 34 35 37 38 38 39 41
16 16 16 16 16 16 16 16 16 16 16 16 16 16 17 18 19 20 21 22 22 23 24 26 27 28 29 29 30 30 31 33 34 36 37 38 39 40
15 16 15 15 16 16 16 16 16 16 15 15 16 16 17 18 19 20 21 22 22 23 24 25 25 26 26 26 27 28 29 30 32 34 36 37 38 39
14 14 15 16 16 16 16 16 15 15 15 15 16 16 17 18 18 19 19 19 20 22 23 24 24 24 25 26 26 26 28 29 30 31 33 35 36 37
13 14 15 16 16 16 16 16 16 16 16 15 15 15 16 17 17 17 18 19 19 20 21 22 23 23 23 24 25 26 26 28 29 30 31 33 34 35
13 14 15 16 16 16 17 17 17 17 16 16 16 16 16 17 17 18 19 19 20 20 21 21 21 21 22 22 23 24 24 26 27 28 29 30 32 34
14 15 15 16 16 16 17 17 18 18 18 17 17 16 16 17 17 18 19 20 21 21 21 21 21 20 21 21 22 22 23 24 25 25 27 29 30 31
14 15 15 16 16 16 17 18 18 18 18 18 17 17 17 17 18 18 18 19 20 20 19 20 20 20 20 21 21 22 23 24 25 26 26 27 29 30
14 15 15 16 16 17 17 17 18 18 18 18 18 17 18 18 18 17 17 18 19 19 19 19 20 20 20 21 21 22 23 24 24 25 26 27 28 30
15 16 16 17 17 17 16 17 18 18 18 18 19 18 18 18 18 18 18 19 18 19 19 20 20 20 20 21 21 21 22 23 23 24 25 27 28 29
16 16 17 17 16 16 16 17 18 18 19 19 19 19 19 18 18 18 18 19 19 19 19 20 20 20 20 20 21 21 21 22 23 23 24 25 26 27
16 16 17 16 16 16 16 17 18 18 19 19 19 19 19 19 19 19 19 19 19 19 18 19 19 20 20 20 20 21 21 21 21 21 22 23 24 26
16 16 17 17 17 16 17 17 18 19 19 19 19 19 19 19 19 19 19 19 19 19 18 18 19 19 19 19 20 20 20 20 20 20 21 22 23 24
Wind_Direction
281 282 282 280 277 275 274 275 275 274 273 272 269 266 264 263 262 259 258 256 255 255 254 252 251 252 251 252 251 250 249 249 247 246 244 243 243 243
284 284 284 282 279 275 275 276 276 275 275 273 269 267 266 265 262 259 259 257 256 255 254 253 252 251 251 252 252 251 251 250 248 246 245 245 245 244
287 287 285 284 282 278 278 277 278 278 277 275 271 269 267 265 263 261 261 259 258 256 255 254 253 253 253 252 252 252 253 252 251 248 246 245 246 246
290 289 288 286 284 283 282 280 279 278 278 275 273 271 267 264 263 262 262 261 260 258 255 254 255 254 253 253 253 253 253 253 252 250 247 245 245 246
290 290 289 288 287 286 286 284 282 280 279 277 273 271 269 265 264 264 263 262 261 260 257 255 255 255 254 254 254 254 254 253 252 251 248 246 245 245
292 291 290 290 289 287 287 285 283 281 281 279 277 274 272 269 267 264 263 262 262 261 260 258 256 256 256 255 255 254 254 253 252 250 248 246 245 246
296 297 297 297 293 291 288 286 285 283 281 279 278 276 275 271 268 265 265 265 264 262 260 259 258 258 258 257 256 255 254 252 251 251 249 247 246 246
304 304 304 302 299 296 294 291 289 286 283 280 280 278 277 274 270 266 265 264 263 262 260 259 259 260 259 258 257 256 254 253 251 250 251 248 246 247
310 307 307 308 306 302 300 298 293 289 286 284 283 281 279 276 272 266 262 263 262 260 261 262 261 261 261 259 258 258 256 254 252 250 249 249 248 247
310 310 312 313 313 307 304 302 299 295 291 289 289 288 284 279 276 272 267 265 263 262 263 265 265 264 262 260 259 257 255 253 252 250 249 248 248 247
314 315 317 318 318 313 309 308 306 302 298 295 295 292 287 286 284 276 272 270 267 265 266 267 267 264 262 261 259 258 256 254 252 250 249 249 250 249
319 320 321 322 324 324 320 317 315 309 302 297 296 292 289 289 287 283 279 278 275 271 269 268 266 264 261 261 260 257 255 254 253 252 251 250 251 250
323 325 326 327 327 328 326 323 319 314 307 303 300 296 292 291 290 286 283 282 281 278 275 272 269 267 266 263 261 259 257 256 255 254 253 252 251 251
328 330 332 331 331 330 328 327 325 322 316 310 305 301 298 297 295 293 291 289 286 284 282 278 276 274 272 269 267 263 260 258 258 257 256 255 253 253
329 330 331 331 332 334 333 331 328 326 321 317 312 308 303 302 300 297 295 294 293 289 287 285 281 277 275 272 269 266 264 261 260 258 257 256 255 254
330 331 331 332 333 334 334 333 331 330 326 321 316 312 307 305 303 300 298 296 294 293 290 288 285 281 276 274 272 270 268 265 263 262 260 259 256 256
330 332 333 334 333 333 334 335 334 332 327 324 320 316 312 308 305 302 300 299 297 295 293 291 289 284 280 278 275 272 269 267 267 264 261 262 261 259
329 331 332 332 331 330 332 334 333 331 331 330 326 321 317 313 308 304 300 301 301 299 297 293 289 286 282 281 280 276 273 271 270 268 265 263 261 260
331 331 331 331 332 333 333 333 333 332 333 333 331 326 323 320 315 311 306 304 302 301 298 295 292 290 285 282 282 280 277 274 272 269 266 263 262 262
334 333 333 332 332 333 333 333 333 334 334 334 332 329 326 323 318 314 311 308 304 302 301 298 296 294 290 286 284 283 281 278 276 272 269 265 263 263
335 336 334 333 333 335 336 336 336 336 335 333 331 331 329 326 323 320 317 314 310 305 303 302 299 297 293 291 287 284 281 279 279 276 273 270 267 266
335 337 337 337 337 338 339 338 337 337 336 334 332 331 330 328 326 324 321 318 315 311 308 307 303 299 295 293 288 285 282 280 280 280 277 275 272 269
339 339 341 340 338 339 340 341 339 337 335 335 335 334 332 330 328 326 324 321 318 316 312 311 308 304 300 297 291 287 285 284 284 283 281 277 275 272
Height
5724 5722 5720 5719 5718 5718 5717 5717 5717 5716 5716 5715 5714 5714 5713 5713 5713 5713 5714 5716 5717 5719 5721 5723 5725 5726 5728 5730 5732 5733 5735 5738 5740 5743 5746 5749 5753 5756
5717 5716 5714 5713 5711 5711 5710 5709 5708 5707 5707 5705 5704 5704 5704 5703 5703 5704 5704 5705 5707 5708 5710 5712 5714 5716 5718 5720 5722 5724 5726 5728 5730 5733 5736 5739 5743 5746
5710 5709 5707 5706 5704 5703 5702 5701 5700 5699 5698 5697 5695 5695 5694 5694 5694 5695 5695 5696 5697 5698 5700 5701 5703 5706 5707 5709 5712 5714 5716 5718 5720 5722 5725 5729 5732 5736
5704 5702 5700 5699 5698 5696 5694 5693 5692 5690 5688 5687 5686 5686 5685 5685 5685 5685 5686 5686 5687 5688 5689 5691 5693 5695 5697 5699 5701 5703 5706 5708 5710 5712 5715 5718 5722 5724
5697 5695 5693 5691 5690 5688 5687 5685 5683 5681 5680 5679 5678 5677 5677 5677 5677 5677 5676 5677 5677 5678 5679 5681 5683 5685 5687 5689 5691 5693 5695 5697 5699 5701 5703 5706 5710 5713
5691 5689 5686 5684 5683 5681 5679 5677 5675 5674 5672 5671 5670 5669 5669 5668 5668 5668 5668 5668 5668 5669 5669 5671 5672 5674 5676 5678 5681 5682 5684 5685 5687 5690 5692 5695 5698 5702
5685 5683 5680 5678 5675 5673 5671 5670 5668 5666 5665 5663 5662 5661 5660 5660 5659 5659 5659 5659 5660 5660 5660 5662 5663 5665 5666 5668 5669 5671 5673 5674 5676 5679 5681 5684 5687 5690
5680 5677 5675 5672 5669 5666 5664 5662 5661 5659 5657 5656 5655 5654 5653 5652 5651 5651 5651 5651 5652 5652 5652 5653 5654 5655 5656 5658 5659 5660 5662 5663 5665 5667 5670 5673 5675 5678
5675 5673 5670 5666 5663 5660 5658 5655 5654 5652 5651 5649 5648 5646 5645 5644 5644 5644 5643 5643 5643 5644 5644 5645 5645 5645 5646 5647 5649 5650 5650 5652 5653 5656 5658 5661 5664 5667
5671 5668 5665 5661 5658 5655 5652 5650 5648 5646 5645 5643 5642 5640 5639 5638 5637 5637 5636 5636 5636 5636 5636 5637 5637 5637 5637 5638 5638 5639 5640 5641 5643 5645 5647 5650 5653 5655
5667 5664 5661 5657 5654 5651 5648 5645 5643 5641 5639 5638 5637 5635 5633 5632 5631 5630 5630 5629 5629 5629 5629 5628 5628 5628 5628 5628 5628 5629 5630 5631 5633 5635 5637 5639 5641 5644
5663 5660 5657 5653 5650 5647 5644 5641 5639 5637 5635 5633 5631 5630 5628 5627 5625 5624 5623 5623 5622 5622 5621 5620 5620 5619 5619 5619 5619 5619 5620 5621 5623 5624 5626 5628 5630 5632
5659 5656 5653 5650 5647 5644 5640 5637 5635 5632 5630 5628 5626 5625 5624 5622 5620 5619 5617 5616 5615 5614 5613 5612 5611 5610 5610 5610 5610 5610 5610 5611 5613 5614 5615 5617 5619 5621
5656 5653 5650 5647 5644 5640 5637 5634 5631 5628 5626 5623 5621 5620 5618 5617 5615 5613 5611 5609 5608 5607 5606 5604 5603 5602 5602 5601 5601 5601 5602 5602 5603 5604 5605 5607 5609 5611
5653 5650 5647 5644 5641 5638 5634 5631 5628 5625 5622 5619 5617 5615 5613 5611 5609 5607 5606 5604 5602 5600 5599 5597 5596 5595 5594 5593 5593 5593 5593 5594 5594 5595 5595 5597 5598 5600
5650 5647 5644 5641 5638 5634 5631 5628 5624 5620 5617 5614 5612 5610 5608 5606 5604 5602 5600 5598 5596 5594 5592 5591 5589 5588 5587 5586 5586 5585 5585 5585 5585 5586 5586 5587 5588 5589
5647 5644 5641 5638 5635 5631 5628 5624 5620 5616 5613 5610 5607 5605 5603 5600 5598 5596 5594 5592 5590 5588 5586 5584 5582 5581 5580 5579 5578 5578 5577 5577 5577 5577 5577 5578 5578 5579
5645 5642 5638 5635 5632 5628 5624 5621 5617 5614 5610 5607 5603 5601 5598 5595 5593 5590 5588 5586 5584 5582 5579 5578 5576 5574 5573 5572 5571 5570 5569 5569 5569 5569 5569 5569 5569 5569
5642 5639 5635 5632 5628 5625 5621 5617 5614 5610 5607 5603 5600 5597 5594 5591 5588 5585 5582 5580 5578 5576 5573 5571 5569 5567 5566 5565 5564 5562 5561 5561 5560 5560 5560 5560 5560 5560
5639 5635 5632 5628 5625 5621 5618 5614 5611 5607 5603 5600 5596 5593 5589 5586 5583 5580 5577 5575 5572 5570 5568 5565 5563 5560 5559 5558 5556 5555 5554 5553 5552 5551 5551 5550 5550 5550
5636 5632 5628 5625 5621 5618 5614 5611 5607 5604 5600 5596 5593 5589 5585 5582 5579 5575 5572 5569 5566 5564 5561 5559 5557 5554 5552 5550 5549 5547 5546 5545 5544 5543 5542 5541 5541 5541
5633 5629 5625 5622 5618 5615 5611 5608 5604 5600 5597 5593 5589 5585 5581 5578 5574 5571 5568 5564 5561 5558 5555 5553 5550 5548 5545 5543 5541 5540 5539 5537 5536 5535 5534 5533 5532 5532
5630 5627 5623 5619 5615 5612 5608 5604 5601 5597 5593 5589 5585 5581 5577 5574 5570 5566 5563 5559 5556 5553 5550 5547 5544 5541 5539 5536 5534 5532 5531 5530 5529 5528 5527 5525 5525 5524